COSMOS 534

Satellite information

Favourite Embed

Satellite Type and Status

PAYLOADIN ORBIT

Key statistics

Satellite COSMOS 534 at a glance.

Uptime

19407

Days in orbit

Revolutions

≈ 12.6

Per day

Orbit

LEO

Low Earth Orbit

Inclination

74.0

Latest

Satellite identification and parameters

Extended collection of information and parameters for COSMOS 534.

Object identification

Identified? True

Debris? False

Object name: COSMOS 534

International designator: 1972-087G

Object number (NORAD): 6269

Object ID (CCSDS): 6269

Country: COMMONWEALTH OF INDEPENDENT STATES (CIS)

Current information (Y/N): Y

RCS size: MEDIUM

Orbital parameters

Period: 113.954 minutes

Inclination: 74.0359 deg

SMA: 7785.956 km

Apoapsis: 1466.709 km

Periapsis: 1348.934 km

RAAN: 284.4672 deg

Eccentricy: 0.00756328

Argument of periapsis: 51.7118 deg

Mean anomaly: 13.9595 deg

Mean motion: 12.63673332 rev/day

Mean motion (dot): -0.00000012 rev/day2

B* drag term: 0.000022138761 1/REarth

Two-line elements (TLE)

Creation date: Dec. 19, 2025, 2:08 a.m.

Reference frame: TEME

Reference center: EARTH

Epoch: Dec. 18, 2025, 10:11 p.m. UTC

TLE line 0: 0 COSMOS 534

TLE line 1: 1 06269U 72087G 25352.92447275 -.00000012 00000-0 22139-4 0 9999

TLE line 2: 2 06269 74.0359 284.4672 0075633 51.7118 13.9595 12.63673332450864

Live tracking on map

Real-time ground track for satellite COSMOS 534.

In-orbit conjunctions

A list of the most updated potential collisions computed for object COSMOS 534.

Target Orbit TCA Probability of collision Miss distance Type
COSMOS 2499 DEB LEO 2024-08-14 10:59:05 0.0001572697 695.0 (m) DEBRIS

Associated space launch

Military communications satellites

COSMOS 534 was lifted into orbit during the mission ‘Kosmos-3M | Strela-1M 33-40’, on board a Kosmos-3M space rocket.

The launch took place on Nov. 1, 1972, 2:08 a.m. from 132/2.

For more information about the launch, click the button.

Launch to space Kosmos-3M | Strela-1M 33-40
Kosmos-3M | Strela-1M 33-40

Agency: N/A

Status: Launch Successful

Launch date: Nov. 1, 1972, 2:08 a.m. UTC

Rocket: Kosmos-3M

Launch pad: 132/2

Location: Plesetsk Cosmodrome, Russian Federation

...

Latest news about this satellite

There are no fresh news available about this satellite. Check back as we update our databases every day.


Newsletter sign-up

Weekly statistics, charts and insights to help you stay on top of the space industry.